Temperature
-1 -1 -1 -1 -1 -3 -2 -2 -1 -1 -1 1 0 -1 0 0 1 0 0 0 0 0 0 0 -0 -0 -0 -1 -1 -1 -1 -1 -1 -1 -1 -1 -1 -1 -1 -1 -1 -1 -1 -1
-1 -1 -2 -2 -2 -2 -2 -2 -2 -2 -1 -0 -0 -0 -0 -0 -0 -0 0 0 -0 -0 -0 -0 -0 -1 -1 -1 -1 -1 -1 -1 -1 -1 -1 -1 -1 -1 -1 -1 -1 -1 -1 -1
-1 -2 -1 -1 -1 -2 -2 -3 -2 -1 -0 -1 -1 -1 -1 -0 -0 -0 0 -0 -0 -0 -0 -1 -1 -1 -1 -1 -2 -2 -2 -1 -2 -2 -1 -1 -1 -1 -1 -1 -1 -1 -2 -2
-2 -2 -0 1 -1 -2 -2 -2 -3 -2 -2 -2 -1 -1 0 1 0 0 -0 -0 -1 -1 -1 -1 -1 -1 -2 -2 -2 -2 -2 -2 -2 -2 -2 -2 -2 -2 -2 -2 -2 -2 -2 -2
-3 -3 -2 -0 -1 -2 -2 -2 -2 -3 -2 -2 -2 -2 -0 1 1 0 -0 -1 -1 -1 -1 -1 -1 -2 -2 -2 -2 -2 -2 -2 -2 -2 -2 -2 -2 -2 -2 -2 -2 -2 -2 -2
-4 -2 -1 0 -1 -2 -1 -1 -1 -2 -3 -3 -3 -2 -1 1 0 -0 -1 -1 -1 -1 -1 -2 -2 -2 -2 -2 -2 -2 -2 -2 -2 -2 -2 -2 -2 -2 -3 -3 -3 -3 -3 -3
-4 -3 -2 -1 -2 -1 -0 0 -0 -1 -1 -2 -3 -1 -0 -0 -0 -1 -1 -1 -1 -2 -2 -2 -2 -2 -3 -3 -3 -3 -3 -3 -3 -3 -3 -3 -3 -3 -3 -3 -3 -3 -3 -3
-5 -4 -1 -2 -3 -2 -1 -0 -0 -0 -1 -1 -1 -1 -1 -1 -1 -1 -1 -2 -2 -2 -2 -2 -3 -3 -3 -3 -3 -3 -3 -3 -3 -3 -3 -3 -3 -3 -3 -3 -3 -3 -3 -3
-4 -2 -2 -2 -1 -0 -0 -0 -0 -0 -0 -1 -1 -1 -1 -2 -2 -2 -2 -2 -2 -2 -2 -3 -3 -3 -3 -3 -3 -3 -3 -3 -3 -3 -3 -3 -4 -4 -4 -4 -4 -4 -4 -4
-5 -4 -3 -2 -1 -0 -0 -0 -0 -0 -1 -1 -2 -2 -2 -2 -2 -2 -2 -2 -3 -3 -3 -3 -3 -3 -3 -3 -3 -3 -3 -3 -3 -4 -4 -4 -4 -4 -4 -4 -4 -4 -4 -4
-6 -5 -4 -1 -0 0 0 -0 -0 -1 -1 -1 -1 -2 -2 -2 -2 -2 -3 -3 -3 -3 -3 -3 -3 -3 -3 -3 -3 -3 -3 -4 -4 -4 -4 -4 -4 -4 -4 -4 -4 -5 -5 -5
-3 -2 -3 -1 1 0 -0 -0 -0 -1 -1 -1 -1 -2 -2 -2 -2 -3 -3 -3 -3 -3 -3 -3 -3 -4 -4 -4 -4 -4 -4 -4 -4 -4 -4 -5 -5 -5 -5 -5 -5 -5 -5 -5
-1 -0 -1 -0 -0 -0 -0 -1 -1 -1 -1 -1 -1 -2 -2 -2 -3 -3 -3 -3 -3 -3 -3 -4 -4 -4 -4 -4 -4 -4 -4 -4 -4 -5 -5 -5 -5 -5 -5 -5 -5 -5 -5 -5
-1 -1 -2 -1 -1 -1 -1 -1 -1 -1 -1 -1 -2 -2 -2 -3 -3 -3 -3 -3 -3 -3 -4 -4 -4 -4 -4 -4 -4 -4 -4 -4 -5 -5 -5 -5 -5 -5 -5 -5 -5 -5 -5 -5
-1 -1 -1 -1 -1 -1 -1 -2 -2 -2 -2 -2 -2 -2 -3 -3 -3 -3 -3 -3 -4 -4 -4 -4 -4 -4 -4 -4 -4 -4 -5 -5 -5 -5 -5 -5 -5 -5 -5 -5 -5 -5 -5 -5
-2 -2 -2 -2 -2 -2 -2 -2 -2 -2 -2 -2 -2 -2 -3 -3 -3 -3 -3 -3 -4 -4 -4 -4 -4 -4 -4 -5 -5 -5 -5 -5 -5 -5 -5 -5 -6 -6 -6 -6 -6 -6 -6 -6
-3 -3 -3 -3 -2 -2 -2 -2 -2 -2 -2 -2 -2 -3 -3 -3 -3 -3 -3 -4 -4 -4 -4 -4 -4 -4 -5 -5 -5 -5 -5 -5 -5 -5 -5 -6 -6 -6 -6 -6 -6 -6 -6 -6
-2 -2 -2 -2 -2 -2 -2 -2 -2 -3 -3 -3 -3 -3 -3 -3 -3 -3 -4 -4 -4 -4 -4 -4 -4 -5 -5 -5 -5 -5 -5 -5 -5 -6 -6 -6 -6 -6 -6 -6 -6 -6 -6 -6
-2 -2 -2 -2 -2 -3 -2 -2 -3 -3 -3 -3 -3 -3 -3 -3 -3 -4 -4 -4 -4 -4 -4 -5 -5 -5 -5 -5 -5 -5 -5 -6 -6 -6 -6 -6 -6 -6 -6 -6 -6 -6 -6 -6
-2 -2 -2 -2 -3 -3 -3 -3 -3 -3 -3 -3 -3 -3 -3 -3 -4 -4 -4 -4 -4 -5 -5 -5 -5 -5 -5 -5 -5 -5 -6 -6 -6 -6 -6 -6 -6 -6 -6 -6 -6 -6 -6 -6
-2 -2 -2 -2 -3 -3 -3 -3 -3 -3 -3 -3 -3 -3 -3 -3 -4 -4 -4 -4 -4 -5 -5 -5 -5 -5 -5 -5 -5 -6 -6 -6 -6 -6 -6 -6 -6 -6 -6 -6 -6 -6 -6 -6
-2 -2 -2 -2 -3 -3 -3 -3 -3 -3 -3 -3 -3 -4 -4 -4 -4 -4 -4 -4 -4 -5 -5 -5 -5 -5 -5 -5 -6 -6 -6 -6 -6 -6 -6 -6 -7 -7 -7 -7 -7 -7 -7 -7
-3 -3 -3 -3 -3 -3 -3 -3 -3 -3 -3 -3 -4 -4 -4 -4 -4 -4 -4 -4 -5 -5 -5 -5 -5 -5 -5 -6 -6 -6 -6 -6 -6 -6 -6 -7 -7 -7 -7 -7 -7 -7 -7 -7
-3 -3 -3 -3 -3 -3 -3 -4 -4 -4 -4 -4 -4 -4 -4 -4 -4 -4 -5 -5 -5 -5 -5 -5 -5 -5 -6 -6 -6 -6 -6 -6 -6 -6 -6 -7 -7 -7 -7 -7 -7 -7 -7 -7
-3 -3 -3 -3 -4 -4 -4 -4 -4 -4 -4 -4 -4 -4 -4 -5 -5 -5 -5 -5 -5 -5 -5 -5 -5 -6 -6 -6 -6 -6 -6 -6 -6 -7 -7 -7 -7 -7 -7 -7 -7 -7 -7 -7
-3 -3 -4 -4 -4 -4 -4 -4 -4 -4 -4 -4 -4 -4 -5 -5 -5 -5 -5 -5 -5 -5 -5 -5 -6 -6 -6 -6 -6 -6 -6 -6 -6 -7 -7 -7 -7 -7 -7 -7 -7 -7 -7 -7
-4 -4 -4 -4 -4 -4 -4 -4 -4 -4 -4 -4 -4 -5 -5 -5 -5 -5 -5 -5 -5 -5 -6 -6 -6 -6 -6 -6 -6 -6 -6 -6 -7 -7 -7 -7 -7 -6 -6 -6 -6 -6 -7 -6
Wind_Speed
4 3 3 5 6 7 9 9 9 8 9 13 8 7 6 5 5 5 5 4 4 4 4 4 4 5 4 4 4 4 4 5 5 5 5 4 4 4 4 4 5 4 4 4
2 1 3 6 9 10 10 8 10 10 13 11 6 4 5 5 5 6 6 6 5 5 5 5 5 5 5 5 5 4 5 6 6 5 5 4 4 4 4 4 4 4 4 4
3 2 3 7 9 10 7 7 8 12 12 6 5 6 7 7 7 7 7 6 6 5 5 5 5 5 5 5 5 5 5 6 6 5 5 5 4 4 4 4 4 4 4 4
0 2 5 7 2 6 7 7 9 9 8 6 8 8 8 7 7 6 6 6 6 5 5 5 4 5 4 4 4 5 5 6 6 5 5 5 4 4 4 4 4 4 4 4
2 2 8 7 2 4 5 7 7 10 10 7 5 6 6 4 4 6 6 5 5 4 4 4 4 4 4 5 4 5 6 6 6 5 5 5 4 4 4 4 4 4 4 4
3 3 6 6 2 3 3 6 4 6 8 5 1 3 6 4 4 5 4 3 3 3 3 3 4 3 4 4 5 6 6 6 6 5 5 4 4 4 3 3 3 3 3 3
4 5 8 6 2 4 3 6 3 4 6 5 5 7 6 5 5 4 4 3 3 2 3 4 4 3 4 4 5 6 6 6 6 5 4 4 3 2 3 3 3 3 3 3
5 5 8 4 5 6 7 3 2 3 4 5 7 7 6 5 5 4 3 3 2 2 4 4 3 3 4 5 6 5 5 5 5 5 4 3 2 3 2 2 2 3 2 3
9 9 4 5 7 6 3 4 4 4 5 5 5 6 6 5 4 4 3 3 3 3 4 4 4 3 5 5 5 5 4 4 4 4 4 3 3 3 2 2 2 2 2 2
6 9 7 7 7 6 6 6 6 5 5 4 6 6 6 5 4 4 4 3 2 2 3 5 4 4 5 5 4 4 4 4 3 3 3 3 3 2 2 2 2 2 2 3
7 8 7 6 7 8 7 6 6 5 5 6 6 6 6 5 5 4 4 3 3 3 4 5 5 5 5 4 3 3 3 3 3 3 3 3 3 2 2 2 2 2 2 2
8 7 6 7 5 5 6 7 6 6 5 5 5 6 5 5 4 4 4 3 3 3 4 4 4 5 4 4 3 2 2 2 2 2 2 2 3 3 4 3 4 4 4 3
8 5 6 7 6 4 5 6 6 6 6 6 5 5 4 4 4 3 4 4 4 4 4 4 4 5 5 3 2 2 2 2 2 2 2 2 2 2 3 4 5 5 5 5
8 5 5 6 6 5 5 4 4 4 4 4 4 3 3 3 3 4 5 4 4 3 4 4 4 4 4 3 2 2 2 2 2 2 2 2 2 2 2 3 4 4 4 6
8 8 8 6 5 4 3 2 3 3 3 3 2 3 3 4 4 5 4 3 2 3 3 3 4 4 3 2 2 2 2 2 2 2 2 2 2 2 2 2 3 3 3 4
6 6 6 6 7 5 4 4 4 5 4 4 3 3 4 4 4 4 3 2 2 3 4 3 4 4 3 2 2 2 2 3 3 2 2 2 2 2 2 2 2 3 3 4
5 6 5 6 7 6 6 6 6 6 5 5 4 3 2 2 2 3 3 2 2 3 3 3 4 3 2 1 1 1 2 2 3 2 2 2 2 2 2 2 2 3 3 4
8 8 7 7 7 7 6 5 5 5 5 4 3 2 2 3 3 3 3 2 2 3 3 3 2 2 1 1 1 1 1 1 2 2 2 2 2 2 2 2 2 3 3 4
6 7 7 6 6 6 5 5 5 4 4 3 3 3 4 3 3 2 2 1 2 3 4 3 3 2 1 2 1 1 1 1 1 2 2 2 2 2 2 2 3 3 3 3
4 5 5 4 4 4 4 4 3 3 3 3 3 2 2 2 2 2 1 2 3 3 3 3 2 2 2 2 1 1 1 1 1 1 2 2 2 2 2 2 3 3 3 3
4 3 3 3 3 3 3 3 3 3 2 3 3 3 3 2 2 1 1 2 3 2 2 3 1 1 1 1 1 1 1 1 1 1 2 2 2 2 2 2 3 3 3 3
3 2 2 2 2 2 2 2 3 3 2 2 2 2 2 2 1 1 2 3 3 3 1 1 1 2 2 2 1 1 1 1 1 1 1 2 2 2 3 3 3 3 3 3
2 2 2 2 2 2 1 1 2 2 2 2 3 3 3 2 2 2 2 2 1 2 1 1 2 2 2 1 0 0 0 1 1 1 2 2 2 2 3 3 3 3 3 3
2 1 1 1 1 1 0 1 0 0 1 1 2 2 2 1 1 2 2 2 2 2 1 2 2 2 2 1 0 1 1 1 2 2 2 2 2 3 3 3 3 3 3 3
2 2 2 2 2 2 1 0 1 1 1 1 1 1 1 1 2 2 1 1 2 1 1 2 2 2 1 0 1 1 1 2 2 2 2 2 2 3 3 3 3 3 3 3
2 2 2 2 2 2 2 2 1 1 0 0 1 1 1 1 0 0 0 1 1 1 1 1 1 1 1 1 1 1 1 2 2 2 2 2 3 3 3 3 4 3 3 3
1 1 1 0 0 1 2 2 2 2 1 1 1 1 1 1 1 1 1 1 1 1 1 1 1 1 1 1 1 1 1 2 2 2 2 2 2 3 3 3 3 3 3 3
Wind_Direction
247 248 203 227 223 199 205 209 217 241 248 268 277 276 278 277 283 287 286 286 284 289 295 303 308 311 312 313 316 316 314 307 299 299 296 290 288 285 282 280 278 276 278 278
277 244 243 263 248 222 224 228 238 262 271 268 271 272 275 274 274 274 278 280 284 288 291 293 296 301 308 308 311 314 308 302 302 304 302 297 290 287 286 282 280 278 276 275
261 308 332 274 238 209 211 213 203 233 251 278 290 279 270 267 264 262 271 278 280 280 279 282 284 289 295 299 309 312 305 303 304 302 298 294 289 284 279 279 282 280 278 276
209 35 249 252 207 185 207 237 219 239 260 267 266 280 272 255 248 260 272 276 279 282 288 291 293 297 298 303 308 309 306 306 305 302 295 292 290 283 278 278 277 276 275 273
152 243 276 292 238 177 200 266 222 232 258 275 305 318 290 250 234 253 263 269 270 272 281 287 291 296 304 306 311 310 307 306 306 303 298 293 288 284 279 277 276 275 275 270
149 203 246 257 235 177 131 284 240 216 248 261 349 303 279 287 290 282 277 274 278 279 287 285 288 298 302 303 308 305 303 303 303 298 293 289 286 290 288 280 281 285 285 278
185 227 262 255 201 129 170 258 283 226 240 218 216 238 270 293 296 286 280 284 284 281 279 276 284 296 295 298 296 295 300 303 303 299 290 283 289 293 294 293 298 293 290 292
169 210 253 200 144 187 228 275 265 250 240 234 249 270 281 285 287 291 295 297 291 286 289 290 289 290 289 288 291 299 303 305 305 305 302 301 297 294 291 293 294 294 295 305
198 219 249 188 207 232 240 258 258 251 259 249 259 270 276 276 271 275 274 278 285 276 289 298 295 284 280 287 297 305 303 301 306 314 316 315 304 296 294 290 286 292 294 299
250 262 254 247 250 257 247 250 263 261 263 250 255 263 269 271 272 273 278 277 284 282 287 297 301 295 280 289 300 303 303 304 312 318 322 328 323 312 302 294 293 302 303 306
252 272 294 269 234 246 257 259 265 267 256 243 242 257 262 265 265 266 276 282 277 272 277 287 298 296 295 300 304 300 302 309 315 317 318 326 329 322 305 286 284 293 295 298
231 229 218 255 257 244 250 260 259 259 271 258 234 246 256 257 259 261 267 276 282 283 283 288 294 296 301 302 296 292 303 312 314 314 318 324 333 340 348 347 349 342 334 324
234 238 228 256 270 248 244 257 261 251 249 259 255 242 245 255 261 261 263 267 269 273 276 284 292 295 303 305 297 280 281 298 306 314 317 322 329 335 341 349 356 359 357 350
242 245 260 254 258 261 252 259 266 267 259 249 248 248 244 255 257 256 259 262 268 270 276 284 288 292 300 303 296 294 289 291 298 302 305 309 311 319 327 329 335 339 343 350
240 228 239 260 271 270 258 250 259 267 269 272 252 240 241 245 254 264 269 268 271 273 279 285 288 294 305 302 295 301 301 295 295 302 307 307 311 321 327 329 327 329 338 341
249 246 243 247 254 256 251 240 245 257 257 260 260 259 256 253 262 269 268 244 241 268 280 283 286 294 304 300 299 305 306 314 318 316 317 319 324 329 330 330 330 332 332 332
228 245 242 250 251 250 242 240 238 244 247 249 252 256 258 263 272 272 276 268 257 263 274 276 283 293 298 298 289 297 310 318 326 326 323 323 326 327 325 327 327 325 322 330
224 232 233 235 241 246 251 247 239 237 237 240 239 229 227 229 242 261 277 296 312 309 298 288 286 289 299 308 298 303 313 318 316 309 312 320 329 328 326 326 323 321 323 331
233 235 238 238 236 232 237 237 234 232 230 213 211 226 235 237 240 253 265 277 294 298 303 306 313 328 313 307 324 309 306 310 317 321 322 329 338 333 330 327 322 321 325 334
241 238 238 242 240 230 231 231 218 219 219 201 203 224 246 253 239 232 239 258 262 266 278 299 306 304 300 304 324 305 293 298 309 318 328 331 328 326 327 327 323 325 330 331
244 242 235 236 247 243 229 212 200 213 219 197 198 216 235 255 241 211 215 280 295 292 284 292 302 295 304 311 315 325 317 317 313 312 313 314 318 320 321 321 322 323 323 323
244 237 235 229 224 253 251 210 194 196 201 210 211 203 210 244 259 269 252 246 265 293 310 292 285 287 304 318 342 335 314 302 297 299 303 305 307 309 312 316 316 317 318 316
238 229 226 221 217 232 264 211 188 185 195 207 205 206 213 226 226 227 272 273 258 281 301 280 294 305 321 352 5 315 296 292 289 287 289 292 294 294 297 302 304 305 306 308
218 223 224 197 145 141 184 298 334 167 194 225 225 215 204 222 278 270 254 268 285 293 294 291 308 319 341 23 311 281 276 282 287 286 287 289 290 291 292 295 298 300 302 305
202 192 172 156 168 196 207 161 63 53 60 17 334 295 251 215 226 269 291 276 285 321 328 313 323 335 357 306 274 272 275 276 279 281 281 286 291 293 292 294 294 294 296 297
196 202 209 211 209 197 179 165 167 185 153 348 333 335 354 3 82 275 325 325 323 343 344 323 316 331 332 301 289 287 286 293 300 295 288 287 289 292 292 294 296 294 294 294
156 158 153 126 199 183 178 178 183 201 202 197 256 307 360 28 46 44 28 16 5 354 344 341 336 326 316 308 301 297 293 291 289 288 285 281 281 283 287 291 294 296 301 303
Height
1493 1492 1493 1493 1493 1496 1497 1493 1493 1484 1482 1469 1467 1467 1465 1464 1463 1462 1461 1460 1459 1458 1457 1456 1454 1453 1452 1450 1448 1447 1445 1443 1441 1439 1437 1436 1435 1433 1432 1432 1431 1431 1430 1430
1492 1491 1492 1491 1487 1489 1490 1489 1488 1483 1476 1465 1465 1464 1463 1462 1460 1459 1458 1457 1456 1455 1454 1453 1451 1450 1449 1447 1445 1443 1441 1439 1437 1435 1434 1432 1430 1429 1428 1428 1427 1427 1427 1426
1491 1493 1489 1485 1478 1480 1482 1480 1479 1477 1468 1463 1463 1461 1460 1458 1457 1456 1455 1454 1453 1452 1451 1450 1448 1447 1445 1444 1442 1440 1438 1436 1434 1432 1430 1428 1427 1426 1425 1424 1424 1423 1423 1423
1496 1494 1489 1473 1470 1471 1473 1471 1470 1467 1463 1461 1460 1458 1456 1455 1454 1453 1452 1451 1450 1449 1448 1447 1445 1444 1443 1441 1439 1437 1435 1432 1430 1428 1426 1424 1423 1422 1421 1421 1420 1420 1419 1419
1498 1496 1485 1472 1468 1470 1471 1467 1462 1463 1460 1459 1458 1456 1452 1451 1451 1450 1449 1448 1447 1446 1445 1443 1442 1441 1439 1437 1435 1433 1431 1429 1427 1425 1422 1421 1420 1419 1418 1418 1417 1417 1416 1416
1498 1492 1482 1467 1465 1464 1468 1466 1456 1456 1456 1456 1457 1458 1451 1448 1448 1447 1446 1445 1444 1443 1442 1440 1439 1437 1436 1434 1432 1430 1428 1426 1424 1422 1419 1418 1417 1416 1415 1415 1414 1413 1413 1412
1495 1492 1478 1465 1463 1465 1469 1461 1454 1452 1452 1453 1453 1452 1448 1446 1445 1444 1443 1442 1441 1440 1439 1437 1436 1434 1432 1431 1429 1427 1425 1423 1421 1419 1417 1415 1414 1413 1413 1412 1411 1411 1410 1409
1492 1490 1475 1461 1462 1463 1458 1453 1451 1450 1450 1450 1448 1446 1445 1443 1442 1440 1439 1438 1437 1436 1435 1434 1433 1431 1429 1428 1426 1424 1422 1420 1418 1416 1414 1413 1412 1411 1410 1409 1409 1408 1407 1406
1475 1466 1457 1455 1454 1453 1452 1451 1449 1448 1447 1447 1445 1443 1442 1440 1439 1437 1436 1435 1435 1433 1432 1431 1430 1428 1426 1425 1423 1421 1419 1417 1415 1414 1412 1411 1410 1408 1407 1407 1406 1405 1404 1404
1469 1458 1453 1452 1451 1450 1449 1448 1446 1446 1444 1443 1441 1440 1439 1437 1436 1435 1434 1433 1432 1430 1429 1428 1427 1425 1424 1422 1420 1418 1416 1414 1413 1411 1410 1409 1408 1406 1405 1405 1404 1403 1402 1401
1463 1454 1450 1446 1446 1446 1445 1444 1443 1442 1441 1439 1438 1437 1435 1434 1433 1432 1431 1430 1429 1428 1426 1425 1424 1422 1421 1419 1417 1416 1414 1413 1411 1410 1408 1407 1406 1405 1404 1403 1403 1402 1401 1400
1452 1446 1446 1443 1442 1442 1441 1440 1439 1438 1436 1435 1435 1433 1432 1431 1430 1429 1428 1427 1426 1425 1424 1422 1421 1420 1418 1417 1415 1414 1412 1411 1410 1408 1407 1406 1405 1404 1403 1403 1402 1401 1400 1399
1441 1440 1440 1439 1438 1437 1437 1436 1435 1434 1433 1431 1431 1430 1429 1428 1427 1426 1426 1425 1424 1423 1421 1420 1419 1417 1416 1415 1414 1412 1411 1410 1408 1407 1406 1405 1404 1403 1401 1401 1401 1400 1399 1398
1437 1437 1436 1434 1434 1433 1433 1432 1431 1430 1429 1428 1428 1427 1426 1425 1424 1423 1423 1422 1422 1420 1419 1418 1417 1415 1414 1413 1412 1411 1409 1408 1407 1406 1405 1404 1403 1402 1401 1400 1399 1398 1398 1397
1432 1432 1431 1430 1430 1429 1429 1428 1427 1426 1426 1425 1424 1424 1423 1421 1421 1420 1420 1420 1419 1418 1417 1416 1415 1413 1412 1411 1410 1409 1408 1407 1406 1405 1404 1403 1402 1401 1401 1400 1398 1397 1396 1396
1427 1427 1426 1426 1425 1425 1424 1424 1423 1422 1422 1422 1421 1420 1420 1419 1419 1418 1418 1417 1416 1415 1415 1414 1413 1412 1411 1410 1409 1408 1407 1406 1405 1404 1403 1402 1401 1400 1399 1399 1398 1397 1395 1395
1422 1421 1421 1421 1420 1420 1420 1420 1420 1419 1419 1418 1418 1418 1417 1416 1416 1416 1416 1415 1415 1414 1413 1412 1411 1410 1409 1408 1407 1406 1405 1404 1404 1403 1402 1401 1400 1399 1399 1398 1397 1396 1395 1394
1417 1417 1417 1417 1416 1416 1416 1416 1416 1416 1416 1416 1416 1415 1414 1414 1414 1413 1413 1413 1413 1412 1412 1411 1410 1409 1408 1407 1406 1405 1404 1403 1402 1401 1401 1400 1399 1398 1398 1397 1396 1395 1394 1393
1412 1412 1412 1412 1412 1412 1412 1413 1413 1413 1413 1413 1413 1412 1412 1412 1412 1412 1412 1411 1410 1409 1409 1409 1408 1407 1406 1405 1405 1404 1403 1402 1401 1400 1400 1399 1398 1397 1397 1396 1395 1394 1393 1392
1408 1408 1408 1408 1408 1409 1409 1409 1410 1410 1410 1410 1410 1410 1410 1410 1410 1410 1410 1409 1409 1409 1408 1407 1407 1406 1405 1404 1404 1403 1402 1401 1400 1399 1399 1398 1397 1396 1396 1395 1394 1393 1392 1391
1405 1405 1405 1405 1405 1406 1406 1407 1407 1407 1408 1408 1408 1408 1408 1408 1408 1408 1408 1407 1408 1407 1407 1406 1405 1405 1404 1403 1403 1402 1401 1400 1399 1398 1397 1397 1396 1395 1394 1393 1392 1392 1391 1390
1402 1402 1403 1403 1403 1404 1404 1405 1405 1405 1405 1406 1406 1406 1406 1406 1406 1406 1406 1406 1406 1406 1405 1405 1404 1404 1403 1402 1402 1401 1400 1399 1398 1397 1396 1395 1395 1394 1393 1392 1391 1390 1390 1389
1401 1401 1401 1402 1402 1402 1403 1403 1403 1404 1404 1404 1404 1404 1404 1404 1404 1404 1404 1405 1405 1404 1404 1403 1403 1402 1402 1401 1400 1400 1399 1398 1397 1396 1395 1394 1393 1393 1392 1391 1390 1389 1389 1388
1400 1400 1400 1401 1401 1401 1401 1402 1402 1403 1403 1403 1403 1404 1404 1403 1403 1404 1404 1403 1403 1403 1402 1402 1402 1401 1400 1400 1399 1398 1397 1397 1396 1395 1394 1393 1392 1392 1391 1390 1389 1389 1388 1387
1398 1399 1399 1399 1399 1400 1400 1401 1401 1401 1402 1402 1403 1403 1403 1403 1403 1402 1402 1402 1402 1401 1401 1401 1400 1400 1399 1398 1398 1397 1396 1395 1394 1394 1393 1392 1391 1390 1390 1389 1388 1387 1387 1386
1397 1397 1398 1398 1399 1399 1399 1400 1400 1400 1401 1401 1401 1402 1402 1402 1402 1402 1401 1401 1401 1400 1400 1399 1399 1398 1398 1397 1396 1396 1395 1394 1393 1392 1391 1391 1390 1389 1388 1388 1387 1386 1385 1385
1396 1397 1397 1397 1398 1398 1399 1399 1399 1400 1400 1400 1400 1401 1401 1401 1401 1401 1400 1400 1399 1399 1399 1398 1397 1397 1396 1396 1395 1394 1393 1392 1392 1391 1390 1389 1389 1388 1387 1387 1386 1385 1384 1384